Osceola, WI

4:53 AM CDT on September 30, 2016 (GMT -0500)
Simenstad Municipal

Weather History for KOEO - September, 2013

Change the Weather History Date:

Wednesday, September 11, 2013

  Actual Average (KMSP) Record (KMSP)
Temperature  
Mean Temperature 69 °F 64 °F  
Max Temperature 82 °F 74 °F 96 °F (1895)
Min Temperature 56 °F 55 °F 35 °F (1962)
Degree Days  
Heating Degree Days 0 4  
Month to date heating degree days 27  
Since 1 July heating degree days 46  
Cooling Degree Days 4 3  
Month to date cooling degree days 39  
Year to date cooling degree days 720  
Growing Degree Days 19 (Base 50)    
Moisture  
Dew Point 56 °F    
Average Humidity 65    
Maximum Humidity 98    
Minimum Humidity 28    
Precipitation  
Precipitation 0.00 in 0.10 in 3.11 in (1900)
Month to date precipitation 1.19  
Year to date precipitation 23.36  
Snow  
Snow 0.00 in 0.00 in 0.00 in ()
Month to date snowfall 0.0  
Since 1 July snowfall 0.0  
Since 1 September snowfall 0.0  
Snow Depth -    
Sea Level Pressure  
Sea Level Pressure 30.03 in    
Wind  
Wind Speed 4 mph (WNW)    
Max Wind Speed 15 mph    
Max Gust Speed 23 mph    
Visibility 10 miles    
Events      
T = Trace of Precipitation, MM = Missing Value Source: NWS Daily Summary

Daily Weather History Graph

Daily Weather History Graph

Search for Another Location

Airport or City:

Trip Planner

Search our weather history database for the weather conditions in past years. The results will help you decide how hot, cold, wet, or windy it might be!

Date:

Astronomy

Sep. 11, 2013 Rise Set
Actual Time 6:44 AM CDT 7:28 PM CDT
Civil Twilight 6:14 AM CDT 7:58 PM CDT
Nautical Twilight 5:39 AM CDT 8:34 PM CDT
Astronomical Twilight 5:02 AM CDT 9:10 PM CDT
Moon 1:31 PM CDT (9/11) 11:06 PM CDT (9/11)
Length of Visible Light 13h 43m
Length of Day
12h 44m
Waxing Crescent, 39% of the Moon is Illuminated
Sep 11
Waxing Crescent
Sep 12
First Quarter
Sep 19
Full
Sep 26
Last Quarter
Oct 4
New

Hourly Weather History & Observations

Time (CDT) Temp. Heat Index Dew Point Humidity Pressure Visibility Wind Dir Wind Speed Gust Speed Precip Events Conditions
12:15 AM 63.7 °F - 58.5 °F 83% 30.01 in 10.0 mi Calm Calm - N/A   Clear
12:35 AM 63.0 °F - 58.3 °F 85% 30.02 in 10.0 mi West 3.5 mph - N/A   Clear
12:55 AM 62.6 °F - 58.6 °F 87% 30.02 in 10.0 mi WSW 3.5 mph - N/A   Clear
1:15 AM 62.6 °F - 58.6 °F 87% 30.01 in 10.0 mi SW 3.5 mph - N/A   Clear
1:35 AM 61.5 °F - 58.3 °F 89% 30.01 in 10.0 mi SW 3.5 mph - N/A   Clear
1:55 AM 60.1 °F - 57.9 °F 93% 30.01 in 10.0 mi Calm Calm - N/A   Clear
2:15 AM 60.1 °F - 57.7 °F 92% 30.02 in 10.0 mi Calm Calm - N/A   Clear
2:35 AM 60.4 °F - 58.5 °F 93% 30.02 in 10.0 mi Calm Calm - N/A   Clear
2:55 AM 59.5 °F - 58.3 °F 96% 30.02 in 10.0 mi Calm Calm - N/A   Clear
3:15 AM 59.4 °F - 58.3 °F 96% 30.03 in 10.0 mi Calm Calm - N/A   Clear
3:35 AM 59.5 °F - 57.7 °F 94% 30.03 in 10.0 mi Calm Calm - N/A   Clear
3:55 AM 59.9 °F - 58.5 °F 95% 30.03 in 10.0 mi Calm Calm - N/A   Clear
4:15 AM 59.4 °F - 58.3 °F 96% 30.03 in 10.0 mi Calm Calm - N/A   Clear
4:35 AM 58.3 °F - 57.2 °F 96% 30.04 in 10.0 mi Calm Calm - N/A   Clear
4:55 AM 58.5 °F - 57.4 °F 96% 30.03 in 10.0 mi Calm Calm - N/A   Clear
5:15 AM 58.3 °F - 57.2 °F 96% 30.03 in 10.0 mi Calm Calm - N/A   Clear
5:35 AM 58.1 °F - 56.8 °F 96% 30.04 in 10.0 mi ESE 3.5 mph - N/A   Clear
5:55 AM 58.1 °F - 57.4 °F 97% 30.04 in 10.0 mi Calm Calm - N/A   Clear
6:15 AM 57.2 °F - 56.5 °F 97% 30.04 in 10.0 mi ESE 3.5 mph - N/A   Clear
6:35 AM 56.3 °F - 55.8 °F 98% 30.04 in 10.0 mi Calm Calm - N/A   Clear
6:55 AM 56.7 °F - 56.1 °F 98% 30.04 in 10.0 mi SSE 5.8 mph - N/A   Clear
7:15 AM 59.7 °F - 58.8 °F 97% 30.04 in 10.0 mi SSE 3.5 mph - N/A   Clear
7:35 AM 59.9 °F - 58.8 °F 96% 30.04 in 10.0 mi Calm Calm - N/A   Clear
7:55 AM 61.0 °F - 59.9 °F 96% 30.04 in 10.0 mi Calm Calm - N/A   Clear
8:15 AM 64.2 °F - 61.3 °F 90% 30.03 in 10.0 mi Calm Calm - N/A   Scattered Clouds
8:35 AM 68.2 °F - 61.9 °F 80% 30.03 in 10.0 mi SW 6.9 mph - N/A   Scattered Clouds
8:55 AM 70.0 °F - 61.7 °F 75% 30.03 in 10.0 mi SW 6.9 mph - N/A   Scattered Clouds
9:15 AM 71.1 °F - 61.7 °F 72% 30.03 in 10.0 mi SW 8.1 mph - N/A   Mostly Cloudy
9:35 AM 72.3 °F - 62.2 °F 70% 30.03 in 10.0 mi West 6.9 mph - N/A   Mostly Cloudy
9:55 AM 74.8 °F - 61.3 °F 63% 30.03 in 10.0 mi WSW 8.1 mph - N/A   Scattered Clouds
10:15 AM 75.4 °F - 61.0 °F 61% 30.03 in 10.0 mi WSW 10.4 mph - N/A   Mostly Cloudy
10:35 AM 76.6 °F - 60.1 °F 56% 30.03 in 10.0 mi West 13.8 mph 18.4 mph N/A   Scattered Clouds
10:55 AM 78.1 °F - 60.4 °F 54% 30.03 in 10.0 mi West 9.2 mph - N/A   Clear
11:15 AM 78.1 °F - 59.2 °F 52% 30.03 in 10.0 mi West 8.1 mph - N/A   Clear
11:35 AM 79.0 °F - 57.9 °F 48% 30.03 in 10.0 mi West 10.4 mph - N/A   Clear
11:55 AM 80.4 °F 80.8 °F 58.1 °F 46% 30.03 in 10.0 mi West 11.5 mph - N/A   Clear
12:15 PM 81.1 °F 81.4 °F 58.5 °F 46% 30.03 in 10.0 mi West 11.5 mph 17.3 mph N/A   Clear
12:35 PM 81.1 °F 81.3 °F 57.9 °F 45% 30.02 in 10.0 mi West 11.5 mph 17.3 mph N/A   Clear
12:55 PM 82.2 °F 82.1 °F 58.1 °F 44% 30.03 in 10.0 mi NW 12.7 mph 16.1 mph N/A   Scattered Clouds
1:15 PM 81.0 °F 81.3 °F 59.2 °F 47% 30.03 in 10.0 mi NW 8.1 mph 17.3 mph N/A   Mostly Cloudy
1:35 PM 81.1 °F 81.4 °F 58.8 °F 46% 30.04 in 10.0 mi WNW 13.8 mph 18.4 mph N/A   Mostly Cloudy
1:55 PM 78.8 °F - 55.4 °F 44% 30.04 in 10.0 mi NW 10.4 mph 20.7 mph N/A   Scattered Clouds
2:15 PM 81.1 °F - 49.8 °F 33% 30.04 in 10.0 mi NNW 15.0 mph 20.7 mph N/A   Scattered Clouds
2:35 PM 81.7 °F - 48.7 °F 32% 30.04 in 10.0 mi NNW 15.0 mph 19.6 mph N/A   Clear
2:55 PM 81.5 °F - 48.7 °F 32% 30.04 in 10.0 mi NW 12.7 mph 20.7 mph N/A   Clear
3:15 PM 82.0 °F - 45.9 °F 28% 30.04 in 10.0 mi NNW 10.4 mph 23.0 mph N/A   Clear
3:35 PM 81.0 °F - 47.5 °F 31% 30.04 in 10.0 mi NNW 11.5 mph 17.3 mph N/A   Scattered Clouds
3:55 PM 81.0 °F - 47.3 °F 31% 30.04 in 10.0 mi NNW 9.2 mph 20.7 mph N/A   Scattered Clouds
4:15 PM 81.1 °F - 47.7 °F 31% 30.04 in 10.0 mi NNW 11.5 mph 16.1 mph N/A   Clear
4:35 PM 81.0 °F - 48.7 °F 32% 30.04 in 10.0 mi NNW 12.7 mph 17.3 mph N/A   Clear
4:55 PM 80.6 °F - 48.9 °F 33% 30.04 in 10.0 mi NW 8.1 mph 16.1 mph N/A   Clear
5:15 PM 80.2 °F - 48.9 °F 33% 30.04 in 10.0 mi NW 10.4 mph - N/A   Clear
5:35 PM 79.7 °F - 50.2 °F 36% 30.04 in 10.0 mi NNW 6.9 mph - N/A   Clear
5:55 PM 79.0 °F - 50.0 °F 36% 30.04 in 10.0 mi NNW 3.5 mph - N/A   Clear
6:15 PM 78.8 °F - 49.5 °F 36% 30.04 in 10.0 mi NW 3.5 mph - N/A   Clear
6:35 PM 78.4 °F - 50.0 °F 37% 30.04 in 10.0 mi Calm Calm - N/A   Clear
6:55 PM 77.0 °F - 50.7 °F 40% 30.03 in 10.0 mi Calm Calm - N/A   Clear
7:15 PM 75.6 °F - 51.1 °F 42% 30.03 in 10.0 mi Calm Calm - N/A   Clear
7:35 PM 71.8 °F - 52.3 °F 50% 30.02 in 10.0 mi SSE 3.5 mph - N/A   Clear
7:55 PM 68.2 °F - 53.8 °F 60% 30.03 in 10.0 mi Calm Calm - N/A   Clear
8:15 PM 64.9 °F - 55.0 °F 70% 30.03 in 10.0 mi Calm Calm - N/A   Clear
8:35 PM 65.3 °F - 55.2 °F 70% 30.03 in 10.0 mi Calm Calm - N/A   Mostly Cloudy
8:55 PM 63.7 °F - 54.5 °F 72% 30.03 in 10.0 mi Calm Calm - N/A   Mostly Cloudy
9:15 PM 63.9 °F - 54.0 °F 70% 30.04 in 10.0 mi Calm Calm - N/A   Mostly Cloudy
9:35 PM 62.8 °F - 53.8 °F 72% 30.04 in 10.0 mi Calm Calm - N/A   Mostly Cloudy
9:55 PM 64.6 °F - 55.4 °F 72% 30.05 in 10.0 mi West 6.9 mph - N/A   Scattered Clouds
10:15 PM 69.1 °F - 54.3 °F 59% 30.06 in 10.0 mi WNW 8.1 mph - N/A   Clear
10:35 PM 69.8 °F - 53.1 °F 55% 30.06 in 10.0 mi WNW 8.1 mph - N/A   Clear
10:55 PM 69.1 °F - 52.7 °F 56% 30.06 in 10.0 mi WNW 8.1 mph - N/A   Clear
11:15 PM 68.4 °F - 51.8 °F 55% 30.07 in 10.0 mi NW 8.1 mph - N/A   Clear
11:35 PM 67.3 °F - 51.8 °F 58% 30.06 in 10.0 mi NW 5.8 mph - N/A   Clear
11:55 PM 65.8 °F - 51.8 °F 60% 30.07 in 10.0 mi WNW 8.1 mph - N/A   Clear